Weather in Espoo

Finland     60°12′24″N   24°39′20″E
temp.,
°C
wind,
m/s
gust,
m/s
humid.,
%
clouds,
%
prec.,
mm/h
press.,
hPa
HPBL,
m
17 may, mon
mon1700:00+9ese0079100 0.0 101010
03:00+9ene247777 0.0 101069
06:00+10e41275100 0.0 1009332
09:00+13ese5107595 0.0 1008349
12:00+14ese51175100 0.3 1007499
15:00+13se31193100 2.6 1007508
18:00+11sw31097100 2.6 1007424
21:00+11se0097100 2.8 100813
18 may, tue
tue1800:00+9wnw1197100 0.0 100810
03:00+9n2497100 0.0 100677
06:00+10n2696100 0.0 1005170
09:00+11n3794100 0.1 1004309
12:00+11nnw51196100 3.4 1001442
15:00+11nw71493100 16.6 1001659
18:00+10nw51393100 1.3 1002718
21:00+10nw51192100 2.3 1003495
19 may, wed
wed1900:00+8wnw39955 0.0 1005258
03:00+7wnw279713 0.0 1005138
06:00+8nw2697100 0.0 1006151
09:00+13nnw23805 0.0 1007388
12:00+17wnw235838 0.0 10071158
15:00+19nw124797 0.0 10061637
18:00+17ssw2352100 0.0 1006744
21:00+14wsw1174100 0.0 100618
20 may, thu
thu2000:00+12nnw2382100 0.0 100686
03:00+11n2390100 0.0 100657
06:00+11nnw2487100 0.0 1006137
09:00+12wnw2481100 0.0 1006221
12:00+15wnw3470100 0.1 1005540
15:00+11w4896100 7.0 1005352
18:00+11nw3894100 7.8 1004506
21:00+10nw41091100 9.5 1003473
21 may, fri
fri2100:00+11wnw41193100 0.3 1002539
03:00+10wnw41193100 0.7 1001479
06:00+9w51389100 0.0 1001460
09:00+12w5138099 0.0 1001640
12:00+15wsw71253100 0.0 10031340
15:00+15wsw7125198 0.0 10061428
18:00+12sw61261100 0.0 10071152
21:00+8sw51182100 0.0 1008815